Weather in Lowestoft

United Kingdom     52°28′51″N   1°43′22″E
temp.,
°C
wind,
m/s
gust,
m/s
humid.,
%
clouds,
%
prec.,
mm/h
press.,
hPa
HPBL,
m
23 april, fri
fri2301:00+4e117928 0.0 102923
04:00+3nnw00785 0.0 102919
07:00+5nne117321 0.0 103029
10:00+8e22555 0.0 1031404
13:00+9e33515 0.0 1031473
16:00+9e34515 0.0 1030384
19:00+7ene236563 0.0 1030107
22:00+6ene457376 0.0 103081
24 april, sat
sat2401:00+6e4580100 0.0 102996
04:00+6e4682100 0.0 1029111
07:00+7ene4681100 0.0 1029221
10:00+8ene4671100 0.0 1030491
13:00+9ene5669100 0.0 1030593
16:00+8ne6775100 0.0 1029604
19:00+7ne688133 0.0 1030614
22:00+6ne69830 0.0 1030445
25 april, sun
sun2501:00+5ne688110 0.0 1030394
04:00+5ne687969 0.0 1030436
07:00+6ne677213 0.0 1030924
10:00+7ne566815 0.0 1030946
13:00+8ne676618 0.0 1030854
16:00+7ne6769100 0.0 1028819
19:00+6ne687585 0.0 1027727
22:00+5ne57805 0.0 1027344
26 april, mon
mon2601:00+5ne57823 0.0 1026294
04:00+4ne46845 0.0 1024265
07:00+5ene358016 0.0 1022376
10:00+7ene4471100 0.0 1021671
13:00+7ene3368100 0.0 1019592
16:00+7ene4469100 0.0 1017524
19:00+6ene467775 0.0 1015491
22:00+5ene589067 0.0 1014267
27 april, tue
tue2701:00+6ene599196 0.0 1012316
04:00+6ene699193 0.0 1012450
07:00+7ne7989100 0.1 1012683
10:00+8ne81080100 0.1 1012863
13:00+8nne81077100 0.3 1011842
16:00+8nne91072100 0.0 1011919
19:00+7n81182100 0.0 1011892
22:00+6n81066100 0.0 10111143